Welcome to mirrors.dotsrc.org

All our mirrors of open source software are available via http, https, ftp and an onion service. More information about our mirrors including statistics and contact information is available on our mirror info pages.

For information about dotsrc.org and our other services please go to our website.

Index of /mirrors/mirrors/ubuntu/ubuntu/ubuntu/pool/universe/k/

File Name  ↓ File Size  ↓ Date  ↓ 
Parent directory/--
ko.tex-extra-hlfont/-2007-11-09 19:03:46
ko.tex-unfonts/-2012-05-02 03:34:28
kedpm/-2012-12-01 05:33:51
kde-artwork-active/-2013-09-20 18:22:41
kayali/-2014-01-26 22:28:25
kingston-update-notifier/-2014-02-19 03:28:51
kosd/-2015-04-26 18:03:16
keepnote/-2015-04-27 15:59:35
kubuntu-patched-l10n/-2015-04-28 18:02:34
key-mon/-2015-04-28 18:02:40
kanla/-2015-04-28 18:02:53
klone/-2015-04-30 13:20:29
kde-l10n-tg/-2015-05-03 08:25:58
kde-l10n-th/-2015-05-03 08:25:58
kde-l10n-vi/-2015-05-03 08:25:58
kyototycoon/-2015-12-04 16:07:43
kcm-qt-graphicssystem/-2015-12-05 01:02:13
kdesudo/-2015-12-05 01:02:14
kpartsplugin/-2015-12-05 01:02:23
kdnssd/-2015-12-05 18:15:41
kscope/-2015-12-12 10:44:31
kwallet/-2015-12-13 18:14:27
konsole4/-2015-12-24 09:05:02
kopete-message-indicator/-2016-01-15 13:04:02
kte-collaborative/-2016-01-16 06:21:17
kimchi/-2016-01-17 23:14:14
kabikaboo/-2016-03-10 12:27:48
kon2/-2016-10-31 18:28:58
kde-l10n-si/-2016-10-31 18:28:59
kaa-imlib2/-2016-11-01 01:04:37
kwin-style-dekorator/-2016-11-01 01:14:45
kopete-plugin-thinklight/-2016-11-01 01:14:46
kiki/-2016-11-01 01:14:49
kitsune/-2016-11-01 01:14:49
kdm-gdmcompat/-2016-11-01 01:14:54
kde-style-skulpture/-2016-11-01 01:14:58
kde-style-polyester/-2016-11-01 01:14:58
kalternatives/-2016-11-01 01:14:59
kaa-base/-2016-11-01 08:04:23
kaa-metadata/-2016-11-01 08:04:23
kwwidgets/-2016-11-01 08:15:32
ksplice/-2016-11-01 08:15:39
kolabadmin/-2016-11-01 08:15:40
kio-ftps/-2016-11-01 08:15:43
kepas/-2016-11-01 08:15:43
kiconedit/-2016-11-01 08:15:43
kgmailnotifier/-2016-11-01 08:15:43
kgrab/-2016-11-01 08:15:43
kftpgrabber/-2016-11-01 08:15:43
kcoloredit/-2016-11-01 08:15:44
kde-service-menu-fuseiso/-2016-11-01 08:15:44
kde-thumbnailer-openoffice/-2016-11-01 08:15:44
katoob/-2016-11-01 08:15:45
knowledgeroot/-2016-11-01 13:24:10
kopete-cryptography/-2016-11-02 07:23:17
kdesrc-build/-2016-11-02 12:35:09
kwin-style-crystal/-2016-11-03 13:08:56
kcometen4/-2016-11-03 13:09:02
ktux/-2016-11-03 19:02:45
kde-workspace/-2016-11-04 01:18:51
kdevelop-php-docs/-2017-02-21 00:19:32
kstars-data-extra-tycho2/-2017-02-24 16:16:46
kubuntu-web-shortcuts/-2017-03-05 18:18:49
kimwitu++/-2017-04-06 06:44:18
klibc/-2017-06-28 18:14:48
ksnapshot/-2018-01-19 09:26:36
knemo/-2018-01-19 09:26:39
kio-mtp/-2018-01-19 09:26:41
khronos-opengl-man4/-2018-01-19 09:26:43
kde-style-qtcurve/-2018-01-19 09:26:49
kde-wallpapers/-2018-01-19 09:26:49
kcm-touchpad/-2018-01-19 09:26:51
kde-base-artwork/-2018-01-19 09:26:51
kaya/-2018-01-19 09:26:52
kaptain/-2018-01-19 09:26:52
kytea/-2018-01-22 08:50:36
kumofs/-2018-01-22 08:50:38
korundum/-2018-01-22 08:50:40
kmess/-2018-01-22 08:50:42
kmer-tools/-2018-01-22 08:50:42
kgamma/-2018-01-22 08:50:44
kdev-python/-2018-01-22 08:50:48
kdesdk-strigi-analyzers/-2018-01-22 08:50:48
kdenetwork-strigi-analyzers/-2018-01-22 08:50:49
kdegraphics-strigi-analyzer/-2018-01-22 08:50:52
kdeconnect-plasma/-2018-01-22 08:50:52
kcm-grub2/-2018-01-22 08:50:54
kryo-serializers/-2018-01-23 09:06:42
komparator/-2018-01-23 09:06:51
kdepim4/-2018-01-23 09:06:53
knutclient/-2018-01-23 09:06:53
kmidimon/-2018-01-23 09:06:54
kimwitu/-2018-01-23 09:07:01
kffmpegthumbnailer/-2018-01-23 09:07:10
kadu-mime-tex/-2018-01-23 09:07:43
kontrolpack/-2018-02-06 14:04:52
kamerka/-2018-04-04 09:00:34
kfritz/-2018-04-04 11:25:43
kmldonkey/-2018-04-04 11:25:44
kgraphviewer/-2018-04-04 11:25:51
kredentials/-2018-04-04 21:24:06
kprinter4/-2018-04-04 21:24:10
killer/-2018-06-08 23:18:18
kubuntu-docs/-2018-06-14 00:14:57
kdbg/-2018-06-22 15:13:14
kde-baseapps/-2018-06-22 15:13:14
kdepim/-2018-06-22 15:13:23
kernel-handbook/-2018-07-25 11:18:16
kubernetes/-2018-09-05 19:53:18
kterm/-2018-10-10 00:20:24
kubetail/-2019-01-18 18:39:14
kanif/-2019-07-18 23:13:39
krecipes/-2019-08-21 00:39:39
kdepimlibs/-2019-08-29 00:17:44
kactivities/-2019-08-29 00:17:44
kqoauth/-2019-09-04 18:59:50
krank/-2019-10-25 22:37:58
ktap/-2019-11-22 12:13:28
kid/-2019-12-17 13:15:55
kernel-package/-2019-12-26 05:18:38
kimwitu-doc/-2020-01-03 00:24:42
kup/-2020-01-31 23:45:33
kgb/-2020-03-22 20:30:05
ketchup/-2020-03-27 18:33:15
keylaunch/-2020-04-02 18:09:05
kerneltop/-2020-04-02 18:09:05
kanjipad/-2020-04-02 18:09:12
kbdd/-2020-04-03 06:13:45
keytouch-editor/-2020-04-03 06:13:51
ksh93/-2020-04-03 10:43:29
kluppe/-2020-04-04 15:08:34
keyboardcast/-2020-04-05 00:13:27
kde-config-whoopsie/-2020-04-05 22:08:22
komi/-2020-04-06 01:08:25
kubuntu-debug-installer/-2020-04-07 06:01:03
kubuntu-driver-manager/-2020-04-07 18:33:24
keras-applications/-2020-04-27 21:14:02
keras-preprocessing/-2020-04-27 21:14:02
knitpy/-2020-04-27 21:14:10
keychain/-2020-05-07 05:28:30
kwstyle/-2020-05-22 05:23:29
kball/-2020-05-31 06:38:56
kuser/-2020-07-10 21:52:13
kvmtool/-2020-07-10 21:52:13
kvpm/-2020-07-10 21:52:13
kscd/-2020-07-10 21:52:13
kshutdown/-2020-07-10 21:52:13
ksaneplugin/-2020-07-10 21:52:13
kppp/-2020-07-10 21:52:13
klick/-2020-07-10 21:52:14
kirigami/-2020-07-10 21:52:14
klinkstatus/-2020-07-10 21:52:14
klein/-2020-07-10 21:52:14
kfilereplace/-2020-07-10 21:52:15
kdevplatform/-2020-07-10 21:52:16
kdewebdev/-2020-07-10 21:52:16
kate4/-2020-07-10 21:52:16
kdeartwork/-2020-07-10 21:52:16
kde4pimlibs/-2020-07-10 21:52:16
kashmir/-2020-07-10 21:52:16
kaccessible/-2020-07-10 21:52:16
kremotecontrol/-2020-07-10 21:52:16
keras/-2020-07-14 00:14:09
kvpnc/-2020-07-14 14:44:37
kover/-2020-07-14 14:44:37
kradio4/-2020-07-14 14:44:37
kfilemetadata/-2020-07-14 14:44:38
kde-l10n-lt/-2020-07-14 14:44:39
kde-l10n-km/-2020-07-14 14:44:39
kde-l10n-ar/-2020-07-14 14:44:39
kde-l10n-fa/-2020-07-14 14:44:39
kde-l10n-he/-2020-07-14 14:44:39
kde-l10n-cs/-2020-07-14 14:44:39
kde-l10n-ia/-2020-07-14 14:44:39
kde-l10n-nl/-2020-07-14 14:44:39
kde-runtime/-2020-07-14 14:44:39
kde-l10n-fr/-2020-07-14 14:44:39
kde-l10n-nds/-2020-07-14 14:44:39
kde-l10n-bg/-2020-07-14 14:44:39
kde-l10n-bs/-2020-07-14 14:44:39
kde-l10n-et/-2020-07-14 14:44:39
kde-l10n-pa/-2020-07-14 14:44:39
kde-l10n-hr/-2020-07-14 14:44:39
kde-l10n-ga/-2020-07-14 14:44:39
kde-l10n-nb/-2020-07-14 14:44:39
kde-l10n-ug/-2020-07-14 14:44:39
kde4libs/-2020-07-14 14:44:39
kde-l10n-gl/-2020-07-14 14:44:39
karlyriceditor/-2020-07-14 14:44:39
kde-l10n-hu/-2020-07-14 14:44:39
kde-l10n-es/-2020-07-14 14:44:39
kde-l10n-wa/-2020-07-14 14:44:39
kde-l10n-pl/-2020-07-14 14:44:39
kde-l10n-hi/-2020-07-14 14:44:39
kde-l10n-sr/-2020-07-14 14:44:39
kde-l10n-sl/-2020-07-14 14:44:39
kde-l10n-eo/-2020-07-14 14:44:39
kde-l10n-kk/-2020-07-14 14:44:39
kde-l10n-it/-2020-07-14 14:44:39
kde-l10n-ro/-2020-07-14 14:44:39
kde-l10n-ca/-2020-07-14 14:44:39
kde-l10n-da/-2020-07-14 14:44:39
kde-l10n-is/-2020-07-14 14:44:39
kde-l10n-sk/-2020-07-14 14:44:39
kde-l10n-tr/-2020-07-14 14:44:39
kde-l10n-ast/-2020-07-14 14:44:39
kde-l10n-zhcn/-2020-07-14 14:44:39
kde-l10n-el/-2020-07-14 14:44:39
kde-l10n-uk/-2020-07-14 14:44:39
kde-l10n-nn/-2020-07-14 14:44:39
kde-l10n-mr/-2020-07-14 14:44:39
kde-l10n-ja/-2020-07-14 14:44:39
kde-l10n-de/-2020-07-14 14:44:39
kde-l10n-id/-2020-07-14 14:44:39
kde-l10n-zhtw/-2020-07-14 14:44:39
kde-l10n-ru/-2020-07-14 14:44:39
kde-l10n-ko/-2020-07-14 14:44:39
kde-l10n-engb/-2020-07-14 14:44:39
kde-l10n-pt/-2020-07-14 14:44:39
kde-l10n-lv/-2020-07-14 14:44:39
kde-l10n-eu/-2020-07-14 14:44:39
kde-l10n-ca-valencia/-2020-07-14 14:44:39
kde-l10n-sv/-2020-07-14 14:44:39
kde-l10n-fi/-2020-07-14 14:44:39
kde-l10n-ptbr/-2020-07-14 14:44:39
kombu/-2020-07-14 18:16:44
kproperty/-2020-07-23 11:58:54
kafs-client/-2020-08-10 12:14:40
kstore/-2020-08-12 19:54:11
ksmtuned/-2020-08-19 23:59:36
kupfer/-2020-10-28 22:39:25
kwalify/-2020-11-10 11:28:48
ktechlab/-2020-11-12 06:15:51
kpeoplevcard/-2020-11-16 00:14:27
kreport/-2020-11-28 06:15:12
keybinder/-2020-12-13 18:05:33
keybinder-3.0/-2020-12-13 18:05:34
kcc/-2020-12-20 11:39:39
kxml2/-2020-12-28 05:24:58
knopflerfish-osgi/-2020-12-28 17:50:13
kxl/-2020-12-29 23:34:32
kytos-sphinx-theme/-2020-12-29 23:34:40
kytos-utils/-2020-12-29 23:34:40
kuttypy/-2020-12-29 23:34:40
kubuntu-notification-helper/-2020-12-29 23:34:40
kopano-webapp/-2020-12-29 23:34:41
klavaro/-2020-12-29 23:34:41
keysync/-2020-12-29 23:34:41
kcm-fcitx/-2020-12-29 23:34:41
kraptor/-2020-12-29 23:34:41
keepassx/-2020-12-29 23:34:41
knowthelist/-2020-12-29 23:34:41
kido/-2020-12-29 23:34:41
kamcli/-2020-12-29 23:34:41
keyringer/-2020-12-29 23:34:41
khmerconverter/-2020-12-29 23:34:41
ktp-legacy-presence-applet/-2020-12-29 23:34:41
kronosnet/-2020-12-29 23:34:41
koji/-2020-12-29 23:34:41
krb5-auth-dialog/-2020-12-29 23:34:41
klystrack/-2020-12-29 23:34:41
kismet/-2020-12-29 23:34:41
koules/-2020-12-29 23:34:41
khronos-api/-2020-12-29 23:34:41
kiki-the-nano-bot/-2020-12-29 23:34:41
kmodpy/-2020-12-29 23:34:41
kodiplatform/-2020-12-29 23:34:41
kickpass/-2020-12-29 23:34:41
knocker/-2020-12-29 23:34:41
krusader/-2020-12-29 23:34:41
kmplayer/-2020-12-29 23:34:41
kim-api/-2020-12-29 23:34:41
kde-config-systemd/-2020-12-29 23:34:41
kelbt/-2020-12-29 23:34:41
kcov/-2020-12-29 23:34:41
kobodeluxe/-2020-12-29 23:34:41
kadu/-2020-12-29 23:34:42
kafkacat/-2020-12-29 23:34:42
k3d/-2020-12-29 23:34:42
klatexformula/-2021-01-01 12:14:14
kakasi/-2021-01-03 18:04:57
keepass2-plugin-keepasshttp/-2021-01-03 23:43:25
kmscube/-2021-01-04 00:28:49
kio-gopher/-2021-01-04 00:28:53
konfont/-2021-01-04 23:40:58
keyboards-rg/-2021-01-05 17:41:00
kindleclip/-2021-01-06 05:40:42
kdgcommons-java/-2021-01-07 23:53:35
kookbook/-2021-01-08 19:04:46
ketm/-2021-01-10 06:20:25
khronos-opencl-man/-2021-01-14 23:29:34
kanyremote/-2021-01-16 06:17:51
keynav/-2021-01-18 05:53:47
kile/-2021-01-20 19:14:38
ktimetracker/-2021-01-23 00:15:28
key-chord-el/-2021-01-25 17:44:34
kwalletcli/-2021-01-25 23:44:11
kitchensink-clojure/-2021-01-26 06:15:00
kthresher/-2021-02-05 18:14:00
kboot-utils/-2021-02-18 06:15:27
kxstitch/-2021-02-25 12:19:08
kubuntu-wallpapers/-2021-03-01 00:17:01
kchmviewer/-2021-03-09 17:29:03
kongress/-2021-03-31 00:14:38
kanjidic/-2021-04-29 14:30:10
katarakt/-2021-04-29 14:32:53
kpatch/-2021-05-11 14:14:24
klaus/-2021-07-13 06:14:50
kylin-display-switch/-2021-08-19 11:38:51
kaffeine/-2021-08-22 14:38:50
konclude/-2021-09-06 22:13:52
kio-fuse/-2021-09-11 10:39:48
kexi/-2021-09-11 12:49:08
knowl.js/-2021-10-19 02:01:17
kazam/-2021-10-19 09:44:11
kasumi/-2021-10-20 16:48:49
klustakwik/-2021-10-21 04:58:54
kino/-2021-10-21 04:58:54
kissfft/-2021-10-21 04:58:54
kraken/-2021-10-21 05:19:03
kraken2/-2021-10-21 05:19:06
krb5-sync/-2021-10-21 05:19:07
kstart/-2021-10-21 05:19:07
ktikz/-2021-10-21 05:19:09
kyotocabinet/-2021-10-21 05:19:10
kphotoalbum/-2021-10-21 05:29:25
kali/-2021-10-21 11:54:11
kdrill/-2021-10-21 17:04:06
kdesvn/-2021-10-22 14:18:48
kdevelop-pg-qt/-2021-10-24 12:09:16
keurocalc/-2021-10-28 12:19:32
kanjidraw/-2021-11-09 12:16:28
kxd/-2021-11-20 23:43:52
kyua/-2021-11-28 00:08:45
khard/-2021-12-02 12:17:17
kannel/-2021-12-03 14:45:47
kotlin/-2021-12-08 19:23:59
kannel-sqlbox/-2021-12-09 02:15:16
ksh93u+m/-2021-12-19 18:15:02
knack/-2021-12-23 02:57:30
kblog/-2021-12-23 02:58:01
kazocsaba-imageviewer/-2021-12-23 02:58:01
kdiagram/-2021-12-23 02:58:01
kst/-2021-12-23 02:58:20
kgb-bot/-2021-12-23 02:58:20
ksysguard/-2021-12-23 02:58:20
krop/-2021-12-23 02:58:20
ksh/-2021-12-23 02:58:20
krb5-strength/-2021-12-23 02:58:20
kworkflow/-2021-12-23 02:58:20
kernsmooth/-2021-12-23 02:58:21
keyrings.alt/-2021-12-23 02:58:21
keepass2/-2021-12-23 02:58:21
kexec-tools/-2021-12-23 02:58:21
kcptun/-2021-12-23 02:58:21
k2pdfopt/-2021-12-23 02:58:21
kf5-kdepim-apps-libs/-2021-12-23 02:58:21
kcollectd/-2021-12-23 02:58:21
keepassxc/-2021-12-23 02:58:21
kconfig-frontends/-2021-12-23 02:58:21
kylin-burner/-2021-12-23 02:58:33
kmod/-2021-12-23 06:20:50
kunststoff/-2021-12-23 11:23:54
kronometer/-2021-12-23 18:28:49
keymapper/-2021-12-26 05:29:15
knews/-2021-12-26 11:48:57
kore/-2021-12-31 12:18:04
kicad-templates/-2022-01-04 06:20:19
k4dirstat/-2022-01-04 12:19:14
khal/-2022-01-05 12:23:09
komposter/-2022-01-06 00:22:19
kmerresistance/-2022-01-08 18:18:05
kmer/-2022-01-13 23:11:06
klayout/-2022-01-15 18:18:58
konwert/-2022-01-17 05:59:09
kmfl-keyboards-mywin/-2022-01-20 05:38:58
kallisto/-2022-01-21 18:18:59
kmc/-2022-01-23 12:19:04
knxd/-2022-01-25 18:18:43
kaidan/-2022-01-28 00:49:20
king-probe/-2022-01-31 00:19:16
kiwix-tools/-2022-02-04 09:44:10
kmetronome/-2022-02-05 12:18:24
kildclient/-2022-02-06 20:15:04
kconfiglib/-2022-02-12 00:19:50
kleborate/-2022-02-13 18:18:38
kubernetes-split-yaml/-2022-02-15 02:09:26
kuvert/-2022-02-16 18:01:10
king/-2022-02-23 12:20:21
kylin-nm/-2022-02-23 17:58:59
kuserfeedback/-2022-02-25 06:20:01
kdsoap/-2022-02-25 18:18:29
kquickimageeditor/-2022-03-01 00:20:25
kvirc/-2022-03-03 18:32:20
kamailio/-2022-03-03 18:32:20
kitty/-2022-03-03 18:32:20
krb5/-2022-03-03 18:32:20
konqueror/-2022-03-04 18:21:47
kalarmcal/-2022-03-05 00:21:53
knockpy/-2022-03-07 07:59:08
knockd/-2022-03-07 13:49:11
kanatest/-2022-03-09 23:14:35
kgx/-2022-03-12 00:19:18
kylin-greeter/-2022-03-12 13:24:16
keyman-config/-2022-03-13 06:19:54
keyman-keyboardprocessor/-2022-03-13 06:19:54
kiwisolver/-2022-03-21 12:20:13
kerneloops/-2022-03-24 17:05:58
kbuild/-2022-04-01 07:19:27
kid3/-2022-04-29 14:59:01
kdb/-2022-04-30 02:00:50
kwartz-client/-2022-04-30 03:17:45
kodi-peripheral-xarcade/-2022-04-30 04:01:10
kodi-inputstream-ffmpegdirect/-2022-04-30 04:01:10
kodi-peripheral-joystick/-2022-04-30 04:01:10
kodi-inputstream-rtmp/-2022-04-30 04:01:11
kodi-inputstream-adaptive/-2022-04-30 04:01:11
kodi-pvr-mythtv/-2022-04-30 04:20:42
kodi-pvr-vbox/-2022-04-30 04:20:42
kodi-pvr-stalker/-2022-04-30 04:20:42
kodi-pvr-sledovanitv-cz/-2022-04-30 04:20:43
kodi-pvr-pctv/-2022-04-30 04:20:43
kodi-pvr-nextpvr/-2022-04-30 04:20:43
kodi-pvr-mediaportal-tvserver/-2022-04-30 04:20:44
kodi-pvr-hts/-2022-04-30 04:20:44
kodi-pvr-iptvsimple/-2022-04-30 04:20:44
kodi-pvr-njoy/-2022-04-30 04:20:44
kodi-pvr-octonet/-2022-04-30 04:20:44
kodi-pvr-dvblink/-2022-04-30 04:20:46
kodi-pvr-hdhomerun/-2022-04-30 04:20:46
kodi-pvr-dvbviewer/-2022-04-30 04:20:47
kodi-pvr-filmon/-2022-04-30 04:20:47
kodi-pvr-argustv/-2022-04-30 04:20:47
kodi-visualization-spectrum/-2022-04-30 04:40:45
kodi-visualization-shadertoy/-2022-04-30 04:40:45
kodi-visualization-fishbmc/-2022-04-30 04:40:46
kodi-vfs-libarchive/-2022-04-30 04:40:46
kodi-screensaver-pyro/-2022-04-30 04:40:46
kodi-vfs-sftp/-2022-04-30 04:40:46
kodi-pvr-vuplus/-2022-04-30 04:40:50
kodi-screensaver-pingpong/-2022-04-30 04:40:51
kodi-screensaver-asteroids/-2022-04-30 04:40:51
kodi-pvr-teleboy/-2022-04-30 04:40:53
kodi-pvr-wmc/-2022-04-30 04:40:53
kodi-pvr-vdr-vnsi/-2022-04-30 04:40:54
kodi-pvr-waipu/-2022-04-30 04:40:54
kodi-visualization-waveform/-2022-04-30 05:34:22
kodi-pvr-zattoo/-2022-04-30 05:34:22
kodi-screensaver-shadertoy/-2022-04-30 05:34:24
kodi-visualization-pictureit/-2022-04-30 05:34:24
kodi-screensaver-biogenesis/-2022-04-30 05:50:30
kodi-screensaver-greynetic/-2022-04-30 06:09:56
keystone-tempest-plugin/-2022-04-30 06:50:14
kas/-2022-04-30 06:50:15
kazoo/-2022-04-30 06:50:15
kineticstools/-2022-04-30 08:44:59
kotlin-mode/-2022-04-30 13:22:41
kdc2tiff/-2022-04-30 14:41:37
kgames/-2022-04-30 14:59:49
kmflcomp/-2022-04-30 14:59:49
kickoff/-2022-04-30 15:59:28
klog/-2022-04-30 18:57:00
kopanocore/-2022-05-01 09:11:45
kawari8/-2022-05-01 11:40:09
kodi-imagedecoder-raw/-2022-05-01 14:14:03
kodi-audioencoder-lame/-2022-05-01 14:14:04
kodi-audioencoder-wav/-2022-05-01 14:14:04
kodi-audioencoder-flac/-2022-05-01 14:14:04
kodi-audioencoder-vorbis/-2022-05-01 14:14:04
kodi-audiodecoder-fluidsynth/-2022-05-01 14:14:04
kodi-imagedecoder-heif/-2022-05-01 14:14:04
kodi-audiodecoder-openmpt/-2022-05-01 14:14:04
kodi-audiodecoder-sidplay/-2022-05-01 14:14:04
kseexpr/-2022-05-01 18:17:40
kbibtex/-2022-05-02 00:29:30
kalign/-2022-05-02 23:49:38
khmer/-2022-05-03 06:19:37
kwayland-server/-2022-05-03 16:05:00
kdocker/-2022-05-05 23:49:42
knot/-2022-05-09 05:04:22
kiwix/-2022-05-11 11:54:19
kubecolor/-2022-05-11 22:47:59
kanshi/-2022-05-16 23:44:32
krename/-2022-05-17 18:25:41
kylin-video/-2022-05-19 21:49:15
kup-backup/-2022-05-20 23:55:01
kernelshark/-2022-05-22 12:18:34
kodi/-2022-05-23 18:19:27
kmymoney/-2022-05-24 18:22:44
khronos-opencl-headers/-2022-05-24 23:24:25
kpcli/-2022-05-25 00:25:29
kraft/-2022-05-25 00:25:29
kcolorpicker/-2022-05-26 14:10:28
kimageannotator/-2022-05-26 22:33:46
karabo-bridge/-2022-05-27 00:56:06
ksnip/-2022-05-27 01:25:24
kcheckers/-2022-05-28 00:04:03
kanboard-cli/-2022-05-28 06:20:14
kitchen/-2022-05-28 12:18:06
kappanhang/-2022-05-31 18:18:48
kstars/-2022-06-03 00:20:58
kaptive/-2022-06-03 05:29:39
kcm-fcitx5/-2022-06-04 12:19:07
kubuntu-meta/-2022-06-04 18:18:06
kubuntu-settings/-2022-06-05 18:19:14
ksmbd-tools/-2022-06-07 18:29:40
kfloppy/-2022-06-10 18:20:47
kcalc/-2022-06-10 18:20:47
kmime/-2022-06-10 18:20:47
keditbookmarks/-2022-06-10 18:20:47
kamera/-2022-06-10 18:20:47
kde-dev-scripts/-2022-06-10 18:20:47
kamoso/-2022-06-10 18:20:47
kdeedu-data/-2022-06-10 18:20:47
kdegraphics-mobipocket/-2022-06-10 18:20:47
kaccounts-integration/-2022-06-10 18:20:47
kdeconnect/-2022-06-10 18:20:47
kdenetwork-filesharing/-2022-06-10 18:20:47
kcharselect/-2022-06-10 18:20:47
kbackup/-2022-06-10 18:20:47
kde-dev-utils/-2022-06-10 18:20:47
kcron/-2022-06-10 18:20:47
kdesdk-thumbnailers/-2022-06-10 18:20:47
kate/-2022-06-10 18:20:47
kpkpass/-2022-06-10 18:20:47
kmouth/-2022-06-10 18:20:47
kcolorchooser/-2022-06-10 18:20:47
kalzium/-2022-06-10 18:20:47
klettres/-2022-06-10 18:20:47
kfind/-2022-06-10 18:20:47
kdialog/-2022-06-10 18:20:47
kig/-2022-06-10 18:20:47
kapptemplate/-2022-06-10 18:20:47
kdf/-2022-06-10 18:20:47
kdesdk-kioslaves/-2022-06-10 18:20:47
kmousetool/-2022-06-10 18:20:47
kiten/-2022-06-10 18:20:47
kontrast/-2022-06-10 18:20:47
khelpcenter/-2022-06-10 18:20:47
kgeography/-2022-06-10 18:20:47
kirigami-gallery/-2022-06-10 18:20:47
kcachegrind/-2022-06-10 18:20:47
kdebugsettings/-2022-06-10 18:20:47
kbruch/-2022-06-10 18:20:47
kimagemapeditor/-2022-06-10 18:20:47
kio-extras/-2022-06-11 00:22:10
kturtle/-2022-06-11 00:22:10
knights/-2022-06-11 00:22:10
ksudoku/-2022-06-11 00:22:10
kmix/-2022-06-11 00:22:10
kidentitymanagement/-2022-06-11 00:22:10
kpmcore/-2022-06-11 00:22:10
ktp-kded-integration-module/-2022-06-11 00:22:10
ktp-contact-runner/-2022-06-11 00:22:10
kmplot/-2022-06-11 00:22:10
kdevelop/-2022-06-11 00:22:10
kwave/-2022-06-11 00:22:10
kdenlive/-2022-06-11 00:22:10
ktimer/-2022-06-11 00:22:10
kwalletmanager/-2022-06-11 00:22:10
kmailtransport/-2022-06-11 00:22:10
klines/-2022-06-11 00:22:10
kshisen/-2022-06-11 00:22:10
ktp-accounts-kcm/-2022-06-11 00:22:10
ktnef/-2022-06-11 00:22:10
krfb/-2022-06-11 00:22:10
kdiamond/-2022-06-11 00:22:10
kipi-plugins/-2022-06-11 00:22:10
ksquares/-2022-06-11 00:22:10
ktp-send-file/-2022-06-11 00:22:10
kleopatra/-2022-06-11 00:22:10
kolourpaint/-2022-06-11 00:22:10
kfourinline/-2022-06-11 00:22:10
ktp-text-ui/-2022-06-11 00:22:10
kgoldrunner/-2022-06-11 00:22:10
kompare/-2022-06-11 00:22:10
kget/-2022-06-11 00:22:10
ktuberling/-2022-06-11 00:22:10
krdc/-2022-06-11 00:22:10
kmines/-2022-06-11 00:22:10
knavalbattle/-2022-06-11 00:22:10
ktp-desktop-applets/-2022-06-11 00:22:10
kwordquiz/-2022-06-11 00:22:10
kollision/-2022-06-11 00:22:10
ktp-filetransfer-handler/-2022-06-11 00:22:10
kruler/-2022-06-11 00:22:10
kjumpingcube/-2022-06-11 00:22:10
kreversi/-2022-06-11 00:22:10
kspaceduel/-2022-06-11 00:22:10
ktp-approver/-2022-06-11 00:22:10
ksystemlog/-2022-06-11 00:22:10
ksirk/-2022-06-11 00:22:10
kqtquickcharts/-2022-06-11 00:22:10
killbots/-2022-06-11 00:22:10
kteatime/-2022-06-11 00:22:10
ktp-contact-list/-2022-06-11 00:22:10
kmahjongg/-2022-06-11 00:22:10
khangman/-2022-06-11 00:22:10
kmag/-2022-06-11 00:22:10
knetwalk/-2022-06-11 00:22:10
kiriki/-2022-06-11 00:22:10
ktp-common-internals/-2022-06-11 00:22:10
kldap/-2022-06-11 00:22:10
ktouch/-2022-06-11 00:22:10
kmbox/-2022-06-11 00:22:10
kigo/-2022-06-11 00:22:10
konquest/-2022-06-11 00:22:10
ksmtp/-2022-06-11 00:22:10
ktp-call-ui/-2022-06-11 00:22:10
ktorrent/-2022-06-11 00:22:10
kubrick/-2022-06-11 00:22:10
ktp-auth-handler/-2022-06-11 00:22:10
kpimtextedit/-2022-06-11 00:22:10
kpat/-2022-06-11 00:22:10
kross-interpreters/-2022-06-11 00:22:10
kontactinterface/-2022-06-11 00:22:10
ksnakeduel/-2022-06-11 00:22:10
kimap/-2022-06-11 00:22:10
konversation/-2022-06-11 00:22:10
klickety/-2022-06-11 00:22:10
kolf/-2022-06-11 00:22:10
katomic/-2022-06-11 00:22:11
kblocks/-2022-06-11 00:22:11
kdegraphics-thumbnailers/-2022-06-11 00:22:11
kbreakout/-2022-06-11 00:22:11
kbounce/-2022-06-11 00:22:11
kcalutils/-2022-06-11 00:22:11
kde-spectacle/-2022-06-11 00:22:11
kanagram/-2022-06-11 00:22:11
kapman/-2022-06-11 00:22:11
kblackbox/-2022-06-11 00:22:11
kalgebra/-2022-06-11 00:22:11
kaccounts-providers/-2022-06-11 00:22:11
knotes/-2022-06-11 06:19:45
konsole/-2022-06-11 06:19:45
kdepim-runtime/-2022-06-11 06:19:45
kdevelop-php/-2022-06-11 06:19:45
kopete/-2022-06-11 06:19:45
kgpg/-2022-06-11 06:19:45
kf5-messagelib/-2022-06-11 06:19:45
kdepim-addons/-2022-06-11 12:19:03
korganizer/-2022-06-11 12:19:03
kalarm/-2022-06-11 12:19:03
kontact/-2022-06-11 12:19:03
kmail-account-wizard/-2022-06-11 12:19:03
kaddressbook/-2022-06-11 12:19:03
kmail/-2022-06-11 12:19:03
kalendar/-2022-06-11 18:18:28
kinput2/-2022-06-14 00:20:19
ksyntax-highlighting/-2022-06-14 00:22:08
ki18n/-2022-06-14 00:22:08
kimageformats/-2022-06-14 00:22:08
kcoreaddons/-2022-06-14 00:22:08
kplotting/-2022-06-14 00:22:08
kitemviews/-2022-06-14 00:22:08
kidletime/-2022-06-14 00:22:08
kdnssd-kf5/-2022-06-14 00:22:08
kwidgetsaddons/-2022-06-14 00:22:08
kapidox/-2022-06-14 00:22:08
kwindowsystem/-2022-06-14 00:22:08
kpty/-2022-06-14 00:22:08
kcalcore/-2022-06-14 00:22:08
kcodecs/-2022-06-14 00:22:08
kguiaddons/-2022-06-14 00:22:08
kwayland/-2022-06-14 00:22:08
kitemmodels/-2022-06-14 00:22:08
kholidays/-2022-06-14 00:22:08
karchive/-2022-06-14 00:22:08
kdbusaddons/-2022-06-14 00:22:08
kunitconversion/-2022-06-14 06:21:48
kwallet-kf5/-2022-06-14 06:21:48
kjsembed/-2022-06-14 06:21:48
kcompletion/-2022-06-14 06:21:48
kemoticons/-2022-06-14 06:21:48
kdoctools/-2022-06-14 06:21:48
kdesu/-2022-06-14 06:21:48
kactivities-kf5/-2022-06-14 06:21:48
kjs/-2022-06-14 06:21:48
kded/-2022-06-14 06:21:48
kservice/-2022-06-14 06:21:48
kconfigwidgets/-2022-06-14 06:21:48
knotifications/-2022-06-14 06:21:48
kdesignerplugin/-2022-06-14 06:21:48
ktextwidgets/-2022-06-14 06:21:48
kactivities-stats/-2022-06-14 06:21:48
kpeople/-2022-06-14 06:21:48
kiconthemes/-2022-06-14 06:21:48
kpackage/-2022-06-14 06:21:48
kauth/-2022-06-14 06:21:48
kcontacts/-2022-06-14 06:21:48
kconfig/-2022-06-14 06:21:48
kcrash/-2022-06-14 06:21:48
kglobalaccel/-2022-06-14 06:21:48
kjobwidgets/-2022-06-14 06:21:48
kfilemetadata-kf5/-2022-06-14 06:21:48
kivy/-2022-06-14 06:48:58
kbookmarks/-2022-06-14 12:20:15
kxmlgui/-2022-06-14 12:20:15
kirigami2/-2022-06-14 12:20:15
kmediaplayer/-2022-06-15 00:20:36
knewstuff/-2022-06-15 00:20:36
khtml/-2022-06-15 00:20:36
knotifyconfig/-2022-06-15 00:20:36
kio/-2022-06-15 00:20:36
kquickcharts/-2022-06-15 00:20:36
kdelibs4support/-2022-06-15 00:20:36
ktexteditor/-2022-06-15 00:20:36
kross/-2022-06-15 00:20:36
kxmlrpcclient/-2022-06-15 00:20:36
kinit/-2022-06-15 00:20:36
kdewebkit/-2022-06-15 00:20:36
kparts/-2022-06-15 00:20:36
kdeclarative/-2022-06-15 00:20:37
kcmutils/-2022-06-15 00:20:37
kdav/-2022-06-15 00:20:37
krunner/-2022-06-15 06:20:22
knot-resolver/-2022-06-16 06:21:42
kylin-scanner/-2022-06-16 15:48:40
keyman/-2022-06-17 12:20:03
kbtin/-2022-06-21 12:20:29
kicad-footprints/-2022-06-22 06:27:14
kicad/-2022-06-23 00:30:59
kicad-symbols/-2022-06-23 00:30:59
kicad-packages3d/-2022-06-23 06:21:19
kephra/-2022-06-23 12:20:09
kdevelop-python/-2022-06-24 00:59:24
kpublictransport/-2022-06-24 12:20:00
kajongg/-2022-06-24 12:20:00
kmscon/-2022-06-24 19:34:08
kio-gdrive/-2022-06-25 00:19:56
kel-agent/-2022-06-25 05:19:27
k3b/-2022-06-25 18:19:07
kakoune/-2022-06-26 06:19:29
keepassxc-browser/-2022-06-26 18:19:53
krita/-2022-06-26 18:19:53
kma/-2022-06-27 06:20:22
khronos-opencl-clhpp/-2022-06-28 12:19:57
kdiff3/-2022-06-28 14:23:57
kactivitymanagerd/-2022-06-29 18:18:55
ksshaskpass/-2022-06-29 18:18:55
kscreenlocker/-2022-06-29 18:18:55
kwallet-pam/-2022-06-29 18:18:55
ksystemstats/-2022-06-29 18:18:55
kgamma5/-2022-06-29 18:18:55
kscreen/-2022-06-29 18:18:55
kinfocenter/-2022-06-29 18:18:55
kdecoration/-2022-06-29 18:18:55
kmenuedit/-2022-06-29 18:18:55
kde-gtk-config/-2022-06-29 18:18:55
kwayland-integration/-2022-06-29 18:18:55
kwrited/-2022-06-29 18:18:55
kwin/-2022-06-30 00:20:44
kde-cli-tools/-2022-06-30 12:19:29
kdeplasma-addons/-2022-06-30 12:19:29
khotkeys/-2022-06-30 12:19:29
kjots/-2022-06-30 18:20:11
kissplice/-2022-07-01 00:09:24
kirigami-addons/-2022-07-01 18:20:38
kitinerary/-2022-07-01 23:29:52
kiwi/-2022-07-02 00:20:15